Regional Weather Roundup
Issued by NWS

Home | Current Version | Previous Version | Text Only | Print | Product List | Glossary On
Versions: 1 2 3 4 5 6 7 8 9 10 11 12 13 14 15 16 17 18 19 20 21 22 23 24 25 26 27 28 29 30 31 32 33 34 35 36 37 38 39 40 41 42 43 44 45 46 47 48 49 50
000
ASUS43 KDMX 202307
RWRIA

WEATHER ROUNDUP FOR IOWA
NATIONAL WEATHER SERVICE DES MOINES IA
600 PM CDT MON OCT 20 2014

NOTE: "FAIR" INDICATES FEW OR NO CLOUDS BELOW 12,000 FEET WITH NO
SIGNIFICANT WEATHER AND/OR OBSTRUCTIONS TO VISIBILITY.

* - THESE STATIONS ARE NOT NWS STATIONS...THUS NOT UNDER NWS
QUALITY CONTROL.  THEY ALSO DO NOT REPORT WEATHER SUCH
AS PRECIPITATION OR FOG.

IAZ001>003-012>014-020>022-031>034-043>046-210000-
   NORTHWEST IOWA

CITY           SKY/WX    TMP DP  RH WIND       PRES   REMARKS
CARROLL *      CLEAR     66  39  37 NW6       30.03S
CHEROKEE *     CLEAR     64  39  39 NW3       30.03S
DENISON *      CLEAR     64  37  36 NW7       30.03R
LE MARS *      CLEAR     68  39  34 NW6       30.04S
ORANGE CITY *  CLEAR     66  39  37 NW6       30.04S
SHELDON *      CLEAR     66  37  34 N6        30.02F
SIOUX CITY     CLEAR     70  39  32 NW6       30.04S
SPENCER        CLEAR     65  40  39 N8        30.03S
STORM LAKE *   CLEAR     64  37  36 N7        30.04S
$$

IAZ055>058-069>071-079>083-090>094-210000-
   SOUTHWEST IOWA

CITY           SKY/WX    TMP DP  RH WIND       PRES   REMARKS
ATLANTIC *     CLEAR     68  39  34 NW7       30.03S
AUDUBON *      CLEAR     66  30  26 W5        30.05S
CLARINDA *     CLEAR     70  41  35 NW5       30.05S
COUNCIL BLFS * CLEAR     68  41  37 CALM      30.04S
CRESTON *      CLEAR     64  43  45 N6        30.04R
HARLAN  *      CLEAR     66  41  39 NW6       30.07S
LAMONI         CLEAR     66  43  43 NW7       30.03R
RED OAK *      CLEAR     68  41  37 NW5       30.04S
SHENANDOAH *   CLEAR     70  39  32 NW7       30.04S
$$

IAZ047>049-059>061-072>074-084-210000-
   CENTRAL IOWA

CITY           SKY/WX    TMP DP  RH WIND       PRES   REMARKS
AMES           CLEAR     65  40  39 NW10      30.01R
ANKENY *       CLEAR     68  39  34 NW8       30.00S
CHARITON *     CLEAR     66  43  42 NW7       30.02R
DES MOINES     PTCLDY    68  38  33 NW8       30.01R
GRINNELL*      CLEAR     64  39  39 NW7       30.00S
KNOXVILLE *    CLEAR     64  41  42 NW8       29.99S
MARSHALLTOWN   CLEAR     63  42  46 NW8       29.99R
PELLA *        CLEAR     66  43  42 NW6       30.01S
PERRY *          N/A     66  39  37 NW5       30.02S
$$

IAZ004>006-015-016-023>025-035-036-210000-
   NORTH CENTRAL IOWA

CITY           SKY/WX    TMP DP  RH WIND       PRES   REMARKS
ALGONA *       CLEAR     64  39  39 N7        30.02S
CLARION *      CLEAR     64  39  39 NW8       30.01S
ESTHERVILLE    CLEAR     64  38  38 N8        30.02S
FORT DODGE *   CLEAR     66  39  37 NW3       30.02S
MASON CITY     CLEAR     61  42  49 NW10      30.01S
FOREST CITY *  CLEAR     61  41  48 NW7       30.01S
IOWA FALLS *     N/A     64  39  39 NW12      30.01S
$$

IAZ007>011-017>019-026>030-037>042-050>054-066-210000-
   NORTHEAST IOWA

CITY           SKY/WX    TMP DP  RH WIND       PRES   REMARKS
CEDAR RAPIDS   CLEAR     64  42  44 NW10      29.96R
CHARLES CITY * CLEAR     61  41  48 NW7G13    30.00R
CLINTON *      CLEAR     63  41  45 NW7       29.97S
DECORAH *      CLEAR     59  41  51 N13       29.97R
DUBUQUE        CLEAR     58  43  57 N9        29.96R
MONTICELLO *   CLEAR     63  43  48 NW10      29.96R
OELWEIN *      CLEAR     63  41  45 NW10      29.98R
WATERLOO       CLEAR     63  41  44 NW12      29.98R
$$

IAZ064-065-067-068-078-210000-
   EAST CENTRAL IOWA

CITY           SKY/WX    TMP DP  RH WIND       PRES   REMARKS
DAVENPORT      CLEAR     62  41  46 NW8       29.95R
IOWA CITY      CLEAR     65  42  43 NW12      29.97R
MT. PLEASANT * CLEAR     64  41  42 W5        29.98R
MUSCATINE *    CLEAR     64  43  45 NW6       29.96S
QUAD CITIES    CLEAR     65  42  43 NW9       29.94R
$$

IAZ062-063-075>077-085>089-095>099-210000-
   SOUTHEAST IOWA

CITY           SKY/WX    TMP DP  RH WIND       PRES   REMARKS
BURLINGTON     CLEAR     65  43  44 NW7       29.97R
FAIRFIELD *    CLEAR     64  41  42 NW8       29.99R
FORT MADISON * CLEAR     66  45  45 NW8       29.98S
KEOKUK *       CLEAR     64  46  52 W8        29.97S
OSKALOOSA *      N/A     66  41  39 NW7       30.00R
CENTERVILLE *  CLEAR     66  43  42 NW5       30.03R
OTTUMWA        CLEAR     64  43  46 W8        29.99R
WASHINGTON *   CLEAR     66  43  42 NW7G14    29.97S
$$

ABBREVIATIONS USED IN REMARKS
   TC - TEMPERATURES IN CELSIUS
  WCI - WIND CHILL INDEX
   HX - HEAT INDEX
  VSB - VISIBILITY
$$



USA.gov is the U.S. government's official web portal to all federal, state and local government web resources and services.